Hourly Data Report for October 22, 2014

All times are specified in Local Standard Time (LST). Add 1 hour to adjust for Daylight Saving Time where and when it is observed.

POND INLET A
NUNAVUT

72°41'22.000" N
77°58'08.000" W
61.60 m
2403206
71095
YIO

Download Data

Hourly Data (October 2014)
Hourly Data Report for October 22, 2014
Temp Definition
°C
Dew Point Temp Definition
°C
Rel Hum Definition
%
Wind Dir Definition
10's deg

Wind Spd Definition
km/h
Visibility Definition
km
Stn Press Definition
kPa
Hmdx Definition


Wind Chill Definition


Weather Definition


TIME
00:00 Legend Double Dagger -6.6 -11.4 69 24 26 16.1 99.40   -15 LegendNANA
01:00 Legend Double Dagger -6.8 -10.3 77 21 13 16.1 99.40   -12 LegendNANA
02:00 Legend Double Dagger -7.7 -10.4 81 19 15 16.1 99.39   -14 Snow
03:00 Legend Double Dagger -7.5 -10.5 79 24 17 16.1 99.38   -14 Snow
04:00 Legend Double Dagger -8.8 -10.4 88 20 17 16.1 99.40   -16 Snow
05:00 Legend Double Dagger -8.5 -11.8 77 25 21 16.1 99.41   -16 Snow
06:00 Legend Double Dagger -9.6 -12.9 77 24 22 16.1 99.43   -18 LegendNANA
07:00 Legend Double Dagger -10.2 -14.3 72 25 22 16.1 99.47   -18 LegendNANA
08:00 Legend Double Dagger -10.8 -15.0 71 23 18 16.1 99.50   -18 LegendNANA
09:00 Legend Double Dagger -11.3 -16.2 67 24 26 16.1 99.53   -21 LegendNANA
10:00 Legend Double Dagger -12.9 -16.8 73 19 26 16.1 99.56   -23 LegendNANA
11:00 Legend Double Dagger -13.1 -16.8 74 20 24 16.1 99.60   -23 LegendNANA
12:00 Legend Double Dagger -13.1 -18.2 66 25 30 16.1 99.63   -24 LegendNANA
13:00 Legend Double Dagger -13.5 -19.3 62 26 22 16.1 99.70   -23 LegendNANA
14:00 Legend Double Dagger -14.2 -19.7 63 25 22 16.1 99.76   -24 LegendNANA
15:00 Legend Double Dagger -15.2 -19.6 69 25 30 16.1 99.78   -26 LegendNANA
16:00 Legend Double Dagger -15.6 -20.0 69 27 22 16.1 99.82   -25 LegendNANA
17:00 Legend Double Dagger -15.6 -21.6 61 25 26 16.1 99.83   -26 LegendNANA
18:00 Legend Double Dagger -16.2 -20.6 69 27 37 16.1 99.85   -29 LegendNANA
19:00 Legend Double Dagger -16.3 -20.1 73 27 50 6.4 99.80   -30 Haze
20:00 Legend Double Dagger -16.2 -19.6 75 27 50 4.8 99.80   -30 Snow
21:00 Legend Double Dagger -15.5 -19.4 73 28 46 8.1 99.84   -29 Snow
22:00 Legend Double Dagger -15.9 -18.9 78 27 39 16.1 99.85   -29 LegendNANA
23:00 Legend Double Dagger -15.5 -18.8 76 25 45 16.1 99.83   -29 LegendNANA

Notes on Data Quality.

Legend

  • E = Estimated
  • M = Missing
  • NA = Not Available
  • ‡ = Partner data that is not subject to review by the National Climate Archives
Date modified: